Grand Canyon, AZ

1:45 PM MST on February 11, 2016 (GMT -0700)
Grand Canyon National Park

Weather History for KGCN - September, 2013

Change the Weather History Date:

Monday, September 23, 2013

  Actual Average Record
Temperature  
Mean Temperature 50 °F -  
Max Temperature 71 °F 71 °F 82 °F (1982)
Min Temperature 30 °F 37 °F 30 °F (1985)
Degree Days  
Heating Degree Days 14    
Moisture  
Dew Point 29 °F    
Average Humidity 54    
Maximum Humidity 88    
Minimum Humidity 17    
Precipitation  
Precipitation 0.00 in - - ()
Sea Level Pressure  
Sea Level Pressure 30.02 in    
Wind  
Wind Speed 1 mph (South)    
Max Wind Speed 7 mph    
Max Gust Speed -    
Visibility 10 miles    
Events      
Averages and records for this station are not official NWS values.
T = Trace of Precipitation, MM = Missing Value Source: NWS Daily Summary

Daily Weather History Graph

Daily Weather History Graph

Search for Another Location

Airport or City:

Trip Planner

Search our weather history database for the weather conditions in past years. The results will help you decide how hot, cold, wet, or windy it might be!

Date:

Astronomy

Sep. 23, 2013 Rise Set
Actual Time 6:17 AM MST 6:23 PM MST
Civil Twilight 5:52 AM MST 6:49 PM MST
Nautical Twilight 5:22 AM MST 7:18 PM MST
Astronomical Twilight 4:51 AM MST 7:48 PM MST
Moon 9:07 PM MST (9/23) 10:31 AM MST (9/23)
Length of Visible Light 12h 57m
Length of Day
12h 05m
Waning Gibbous, 80% of the Moon is Illuminated
Sep 23
Waning Gibbous
Sep 26
Last Quarter
Oct 4
New
Oct 11
First Quarter
Oct 18
Full

Hourly Weather History & Observations

Time (MST) Temp. Windchill Dew Point Humidity Pressure Visibility Wind Dir Wind Speed Gust Speed Precip Events Conditions
12:54 AM 34.0 °F - 28.9 °F 82% 29.92 in 10.0 mi Calm Calm - N/A   Clear
1:54 AM 34.0 °F - 28.0 °F 79% 29.92 in 10.0 mi Calm Calm - N/A   Clear
2:54 AM 32.0 °F - 28.0 °F 85% 29.94 in 10.0 mi Calm Calm - N/A   Clear
3:54 AM 30.9 °F - 27.0 °F 85% 29.96 in 10.0 mi Calm Calm - N/A   Clear
4:54 AM 30.0 °F 26.5 °F 27.0 °F 88% 29.98 in 10.0 mi NE 3.5 mph - N/A   Clear
5:54 AM 30.0 °F - 26.1 °F 85% 30.00 in 10.0 mi Calm Calm - N/A   Clear
6:54 AM 32.0 °F - 28.0 °F 85% 30.04 in 10.0 mi Calm Calm - N/A   Clear
7:54 AM 48.0 °F - 34.0 °F 58% 30.01 in 10.0 mi Calm Calm - N/A   Clear
8:54 AM 55.9 °F - 30.9 °F 39% 30.01 in 10.0 mi NW 6.9 mph - N/A   Clear
9:54 AM 60.1 °F - 25.0 °F 26% 30.01 in 10.0 mi Variable 5.8 mph - N/A   Clear
10:54 AM 63.0 °F - 25.0 °F 24% 30.01 in 10.0 mi Calm Calm - N/A   Clear
11:54 AM 64.9 °F - 25.0 °F 22% 30.01 in 10.0 mi Variable 4.6 mph - N/A   Clear
12:54 PM 70.0 °F - 28.0 °F 21% 29.98 in 10.0 mi WSW 4.6 mph - N/A   Smoke
1:54 PM 71.1 °F - 27.0 °F 19% 29.97 in 7.0 mi Variable 5.8 mph - N/A   Smoke
2:54 PM 71.1 °F - 28.9 °F 21% 29.99 in 8.0 mi Variable 6.9 mph - N/A   Smoke
3:54 PM 71.1 °F - 28.9 °F 21% 30.00 in 10.0 mi Variable 5.8 mph - N/A   Clear
4:54 PM 70.0 °F - 23.0 °F 17% 30.02 in 10.0 mi Calm Calm - N/A   Clear
5:54 PM 66.0 °F - 28.9 °F 25% 30.04 in 10.0 mi Calm Calm - N/A   Clear
6:54 PM 52.0 °F - 35.1 °F 53% 30.11 in 10.0 mi Calm Calm - N/A   Clear
7:54 PM 46.0 °F - 35.1 °F 66% 30.09 in 10.0 mi Calm Calm - N/A   Clear
8:54 PM 43.0 °F - 33.1 °F 68% 30.09 in 10.0 mi Calm Calm - N/A   Clear
9:54 PM 39.9 °F - 33.1 °F 77% 30.10 in 10.0 mi Calm Calm - N/A   Clear
10:54 PM 39.0 °F - 30.9 °F 73% 30.09 in 10.0 mi Calm Calm - N/A   Clear
11:54 PM 39.0 °F 36.8 °F 30.9 °F 73% 30.07 in 10.0 mi ENE 3.5 mph - N/A   Clear